Flag for Greece Weather past 2 weeks in Glyfada, Greece

Now
59 °F

Partly cloudy.


Feels Like: 55 °F
Forecast: 50 / 59 °F
Wind: 25 mph from South

Location: Eleftherios Venizelos International Airport

Current Time: Dec 28, 2014 at 7:27:38 PM

Latest Report: Dec 28, 2014 at 6:50 PM


Visibility: N/A

Pressure: 29.74 "Hg

Humidity: 68%

Dew point: 48 °F

Location of GlyfadaLocation

Historic Weather in Glyfada — Graph

°F

Glyfada temperature yesterday

Maximum temperature yesterday: 55 °F (at 2:50 AM)
Minimum temperature yesterday: 36 °F (at 10:50 PM)
Average temperature yesterday: 49 °F

Past Weeks' High & Low Weather Summary

 TemperatureHumidityPressure
High64 °F (Dec 17, 1:20 PM)100% (Dec 21, 1:50 AM)30.42 "Hg (Dec 21, 1:50 AM)
Low32 °F (Dec 28, 3:20 AM)33% (Dec 22, 12:20 AM)29.77 "Hg (Dec 28, 5:20 PM)
Average51 °F74%30.14 "Hg
* Reported Dec 13 5:20 PM — Dec 28 5:50 PM, Glyfada, Weather by CustomWeather, © 2014

Note: Actual official high and low records may vary slightly from our data, if they occured in-between our weather recording intervals... More about our weather records

Advertising

Glyfada weather history for previous 24 hours

 ConditionsComfort  
Time TempWeatherWind HumidityBarometerVisibility
5:50 PM
Dec 28
57 °FPartly cloudy.21 mph67%29.77 "HgN/A
5:20 PM57 °FPartly cloudy.15 mph63%29.77 "HgN/A
4:50 PM57 °FBroken clouds.16 mph59%29.80 "HgN/A
4:20 PM55 °FScattered clouds.16 mph67%29.80 "HgN/A
3:50 PM55 °FScattered clouds.20 mph63%29.80 "HgN/A
3:20 PM55 °FScattered clouds.14 mph59%29.83 "HgN/A
2:50 PM55 °FScattered clouds.20 mph59%29.83 "HgN/A
2:20 PM57 °FScattered clouds.17 mph51%29.83 "HgN/A
1:50 PM57 °FScattered clouds.18 mph44%29.86 "HgN/A
1:20 PM57 °FScattered clouds.22 mph48%29.86 "HgN/A
12:50 PM57 °FScattered clouds.21 mph51%29.86 "HgN/A
12:20 PM57 °FScattered clouds.21 mph51%29.89 "HgN/A
11:50 AM55 °FScattered clouds.5 mph67%29.92 "HgN/A
11:20 AM52 °FScattered clouds.1 mph62%29.92 "HgN/A
10:50 AM50 °FScattered clouds.2 mph67%29.92 "HgN/A
10:20 AM46 °FScattered clouds.No wind71%29.95 "HgN/A
9:50 AM46 °FScattered clouds.No wind71%29.92 "HgN/A
9:20 AM41 °FScattered clouds.No wind76%29.95 "HgN/A
8:50 AM41 °FScattered clouds.1 mph76%29.95 "HgN/A
8:20 AM37 °FScattered clouds.2 mph81%29.95 "HgN/A
7:50 AM37 °FScattered clouds.3 mph81%29.95 "HgN/A
7:20 AM37 °FPassing clouds.5 mph75%29.95 "HgN/A
6:50 AM36 °FPassing clouds.No wind81%29.95 "HgN/A
6:20 AM32 °FPassing clouds.1 mph87%29.95 "HgN/A
5:20 AM34 °FPassing clouds.2 mph87%29.95 "HgN/A
4:50 AM34 °FPassing clouds.No wind87%29.95 "HgN/A
4:20 AM32 °FPassing clouds.2 mph87%29.98 "HgN/A
3:50 AM32 °FPassing clouds.2 mph87%29.95 "HgN/A
3:20 AM32 °FPassing clouds.3 mph93%29.95 "HgN/A
2:50 AM34 °FPassing clouds.3 mph87%29.95 "HgN/A
2:20 AM34 °FPassing clouds.2 mph87%29.95 "HgN/A
1:50 AM34 °FPassing clouds.3 mph81%29.95 "HgN/A
1:20 AM34 °FPassing clouds.6 mph87%29.95 "HgN/A
12:50 AM36 °FPassing clouds.2 mph87%29.95 "HgN/A
12:20 AM34 °FPassing clouds.6 mph87%29.95 "HgN/A
11:50 PM
Dec 27
36 °FPassing clouds.5 mph87%29.95 "HgN/A
11:20 PM36 °FPassing clouds.2 mph87%29.95 "HgN/A
10:50 PM36 °FPassing clouds.2 mph81%29.95 "HgN/A
10:20 PM43 °FPassing clouds.1 mph66%29.95 "HgN/A
9:50 PM43 °FPassing clouds.No wind66%29.95 "HgN/A
9:20 PM43 °FPassing clouds.No wind61%29.92 "HgN/A
8:50 PM45 °FPassing clouds.1 mph61%29.92 "HgN/A
8:20 PM45 °FPassing clouds.2 mph66%29.92 "HgN/A
7:50 PM45 °FPassing clouds.5 mph61%29.89 "HgN/A
7:20 PM45 °FPassing clouds.1 mph66%29.89 "HgN/A
Weather by CustomWeather, © 2014

See weather overviewHow to use our weather pages